GW3677 Weather Reports


Display with metric or nautical units.
time (UTC)temp
F
wind
direction
speed
MPH
gust
MPH
rain 1hr
in
rain 24hr
in
rain mn
in
humidity
%
barometer
mb
20260504070338 60 130 0.0 1.0 0.00 0.00 0.00 88 1016.9
20260504050726 61 34 0.0 0.0 0.00 0.00 0.00 87 1017.7
20260504050223 61 34 0.0 1.0 0.00 0.00 0.00 86 1017.8
20260504045721 61 34 0.0 0.0 0.00 0.00 0.00 85 1018.0
20260504045216 62 34 0.0 1.0 0.00 0.00 0.00 84 1017.9
20260504044714 62 34 0.0 0.0 0.00 0.00 0.00 83 1018.0
20260504044211 62 34 0.0 0.0 0.00 0.00 0.00 82 1017.8
20260504043708 63 34 0.0 0.0 0.00 0.00 0.00 82 1018.0
20260504043204 63 34 0.0 0.0 0.00 0.00 0.00 81 1017.9
20260504042702 63 34 0.0 0.0 0.00 0.00 0.00 80 1017.9
20260504042158 63 34 0.0 1.0 0.00 0.00 0.00 79 1018.1
20260504041654 63 34 0.0 1.0 0.00 0.00 0.00 79 1018.1
20260504041150 63 34 1.0 2.0 0.00 0.00 0.00 79 1018.0
20260504040648 62 52 0.0 0.0 0.00 0.00 0.00 82 1018.2
20260504040145 63 52 0.0 0.0 0.00 0.00 0.00 81 1018.1
20260504035641 63 52 0.0 0.0 0.00 0.00 0.00 80 1018.1
20260504035138 62 52 0.0 1.0 0.00 0.00 0.00 80 1018.1
20260504034636 62 52 0.0 0.0 0.00 0.00 0.00 80 1018.0
20260504034132 63 49 1.0 1.0 0.00 0.00 0.00 79 1018.2
20260504033630 64 57 0.0 0.0 0.00 0.00 0.00 77 1018.1
20260504033127 64 51 0.0 0.0 0.00 0.00 0.00 74 1017.9
20260504032624 64 51 0.0 1.0 0.00 0.00 0.00 74 1017.8
20260504032121 64 57 0.0 1.0 0.00 0.00 0.00 74 1017.7
20260504031618 64 57 0.0 1.0 0.00 0.00 0.00 76 1017.7
20260504031114 64 57 0.0 1.0 0.00 0.00 0.00 76 1017.6
20260504030611 65 57 0.0 1.0 0.00 0.00 0.00 73 1017.6
20260504030108 65 57 0.0 1.0 0.00 0.00 0.00 72 1017.6
20260504025605 65 52 0.0 2.0 0.00 0.00 0.00 73 1017.7
20260504025102 64 51 1.0 2.0 0.00 0.00 0.00 74 1017.7
20260504024559 65 52 0.0 1.0 0.00 0.00 0.00 73 1017.4
20260504024055 64 52 1.0 1.0 0.00 0.00 0.00 73 1017.5
20260504023552 64 51 0.0 1.0 0.00 0.00 0.00 77 1017.5
20260504023048 64 51 1.0 1.0 0.00 0.00 0.00 76 1017.5
20260504022544 65 51 0.0 0.0 0.00 0.00 0.00 73 1017.4
20260504022040 65 51 0.0 0.0 0.00 0.00 0.00 72 1017.3
20260504021537 66 51 0.0 1.0 0.00 0.00 0.00 71 1017.3
20260504021029 66 51 0.0 1.0 0.00 0.00 0.00 71 1017.1
20260504020526 67 57 1.0 1.0 0.00 0.00 0.00 70 1017.2
20260504020022 67 52 0.0 1.0 0.00 0.00 0.00 68 1017.2
20260504015519 68 52 1.0 1.0 0.00 0.00 0.00 67 1017.1
20260504015015 68 52 1.0 1.0 0.00 0.00 0.00 66 1016.8
20260504014511 68 54 0.0 1.0 0.00 0.00 0.00 65 1017.1
20260504014009 69 46 1.0 2.0 0.00 0.00 0.00 64 1016.9
20260504013506 69 54 0.0 1.0 0.00 0.00 0.00 64 1016.8
20260504013003 69 64 0.0 1.0 0.00 0.00 0.00 64 1016.7
20260504012501 69 59 2.0 3.0 0.00 0.00 0.00 63 1016.7
20260504011958 70 63 3.0 3.0 0.00 0.00 0.00 62 1016.6
20260504011454 70 85 2.0 3.0 0.00 0.00 0.00 62 1016.4
20260504010950 70 98 3.0 5.0 0.00 0.00 0.00 61 1016.2
20260504010447 71 107 2.0 3.0 0.00 0.00 0.00 61 1016.0
20260504005942 71 82 3.0 3.0 0.00 0.00 0.00 60 1016.0
20260504005439 71 59 4.0 5.0 0.00 0.00 0.00 59 1016.2
20260504004937 71 60 3.0 3.0 0.00 0.00 0.00 59 1016.1
20260504004434 72 64 3.0 6.0 0.00 0.00 0.00 58 1016.0
20260504003931 72 73 1.0 5.0 0.00 0.00 0.00 57 1015.9
20260504003427 72 69 0.0 3.0 0.00 0.00 0.00 57 1016.0
20260504002924 73 63 3.0 5.0 0.00 0.00 0.00 56 1015.7
20260504002421 73 63 1.0 5.0 0.00 0.00 0.00 56 1015.6
20260504001919 73 72 5.0 6.0 0.00 0.00 0.00 55 1015.6
20260504001416 73 73 3.0 3.0 0.00 0.00 0.00 55 1015.6
20260504000912 74 64 2.0 3.0 0.00 0.00 0.00 53 1015.5
20260504000410 74 67 2.0 3.0 0.00 0.00 0.00 52 1015.6
20260503235907 75 68 4.0 6.0 0.00 0.00 0.00 50 1015.4
20260503235405 75 21 1.0 1.0 0.00 0.00 0.00 49 1015.1
20260503234902 75 21 0.0 1.0 0.00 0.00 0.00 49 1015.3
20260503234400 76 21 0.0 0.0 0.00 0.00 0.00 48 1015.4
20260503233857 77 21 0.0 0.0 0.00 0.00 0.00 44 1015.3
20260503233354 77 21 0.0 1.0 0.00 0.00 0.00 43 1015.3
20260503232850 77 21 0.0 1.0 0.00 0.00 0.00 43 1015.3
20260503232347 77 48 0.0 2.0 0.00 0.00 0.00 42 1015.1
20260503231845 78 53 1.0 2.0 0.00 0.00 0.00 41 1015.4
20260503231341 78 170 2.0 5.0 0.00 0.00 0.00 41 1015.3
20260503230838 78 119 1.0 2.0 0.00 0.00 0.00 40 1015.3
20260503230334 78 115 3.0 5.0 0.00 0.00 0.00 39 1015.4
20260503225827 78 80 2.0 5.0 0.00 0.00 0.00 39 1015.2
20260503225322 78 138 2.0 3.0 0.00 0.00 0.00 40 1015.2
20260503224819 78 101 2.0 3.0 0.00 0.00 0.00 40 1015.2
20260503224316 78 68 5.0 7.0 0.00 0.00 0.00 40 1015.3
20260503223814 78 110 3.0 3.0 0.00 0.00 0.00 40 1015.1
20260503223311 79 119 5.0 6.0 0.00 0.00 0.00 41 1015.2
20260503222807 79 50 2.0 2.0 0.00 0.00 0.00 40 1015.2
20260503222306 78 41 3.0 6.0 0.00 0.00 0.00 41 1015.3
20260503221803 78 303 0.0 1.0 0.00 0.00 0.00 41 1015.3
20260503221301 78 305 2.0 3.0 0.00 0.00 0.00 41 1015.3
20260503220757 79 330 3.0 5.0 0.00 0.00 0.00 40 1015.5
20260503220254 79 83 2.0 5.0 0.00 0.00 0.00 39 1015.3
20260503215751 80 83 3.0 8.0 0.00 0.00 0.00 41 1015.5
20260503215248 80 38 2.0 3.0 0.00 0.00 0.00 39 1015.5
20260503214746 79 114 2.0 5.0 0.00 0.00 0.00 40 1015.4
20260503214243 79 84 6.0 7.0 0.00 0.00 0.00 40 1015.3
20260503213741 80 91 3.0 5.0 0.00 0.00 0.00 40 1015.4
20260503213238 80 158 3.0 6.0 0.00 0.00 0.00 40 1015.2
20260503212734 79 88 2.0 5.0 0.00 0.00 0.00 41 1015.3
20260503212232 80 107 3.0 6.0 0.00 0.00 0.00 42 1015.4
20260503211730 79 61 1.0 7.0 0.00 0.00 0.00 40 1015.5
20260503211226 79 111 0.0 2.0 0.00 0.00 0.00 40 1015.2
20260503210721 78 111 4.0 7.0 0.00 0.00 0.00 42 1015.4
20260503210219 80 72 5.0 7.0 0.00 0.00 0.00 42 1015.3
20260503205714 80 87 1.0 3.0 0.00 0.00 0.00 41 1015.3
20260503205210 79 41 5.0 6.0 0.00 0.00 0.00 43 1015.3
20260503204707 79 108 0.0 2.0 0.00 0.00 0.00 43 1015.2
20260503204205 80 123 5.0 5.0 0.00 0.00 0.00 42 1015.4
20260503203702 80 342 6.0 7.0 0.00 0.00 0.00 40 1015.6
20260503203200 80 310 2.0 5.0 0.00 0.00 0.00 41 1015.7
20260503202656 80 33 3.0 5.0 0.00 0.00 0.00 42 1015.7
20260503202154 80 335 6.0 7.0 0.00 0.00 0.00 42 1015.7
20260503201652 79 15 2.0 6.0 0.00 0.00 0.00 44 1015.9
20260503201149 80 99 5.0 8.0 0.00 0.00 0.00 42 1015.8
20260503200645 80 330 3.0 6.0 0.00 0.00 0.00 39 1015.9
20260503200141 80 314 4.0 6.0 0.00 0.00 0.00 39 1016.1
20260503195639 78 44 2.0 3.0 0.00 0.00 0.00 44 1016.2
20260503195136 78 92 1.0 3.0 0.00 0.00 0.00 46 1016.1
20260503194633 77 117 2.0 3.0 0.00 0.00 0.00 47 1016.3
20260503194128 78 57 5.0 10.0 0.00 0.00 0.00 46 1016.2
20260503193625 80 48 3.0 5.0 0.00 0.00 0.00 42 1016.5
20260503193121 79 51 2.0 3.0 0.00 0.00 0.00 39 1016.3
20260503192616 79 20 1.0 3.0 0.00 0.00 0.00 39 1016.5
20260503192112 78 238 5.0 8.0 0.00 0.00 0.00 40 1016.6
20260503191604 79 333 4.0 8.0 0.00 0.00 0.00 40 1016.6
20260503191100 79 69 2.0 7.0 0.00 0.00 0.00 41 1016.8
20260503190557 79 37 3.0 7.0 0.00 0.00 0.00 38 1016.7
20260503190054 78 67 2.0 5.0 0.00 0.00 0.00 39 1016.8
20260503185551 79 330 5.0 7.0 0.00 0.00 0.00 38 1017.1
20260503185050 78 21 4.0 7.0 0.00 0.00 0.00 40 1017.1
20260503184546 78 22 2.0 7.0 0.00 0.00 0.00 40 1017.1
20260503184043 78 3 4.0 8.0 0.00 0.00 0.00 41 1017.2
20260503183540 79 344 5.0 8.0 0.00 0.00 0.00 44 1017.2
20260503183037 78 239 4.0 8.0 0.00 0.00 0.00 43 1017.3
20260503182536 77 25 6.0 8.0 0.00 0.00 0.00 44 1017.4
20260503182033 78 358 4.0 8.0 0.00 0.00 0.00 44 1017.6
20260503181530 78 92 3.0 5.0 0.00 0.00 0.00 42 1017.3
20260503181026 78 347 4.0 8.0 0.00 0.00 0.00 42 1017.7
20260503180524 77 6 5.0 8.0 0.00 0.00 0.00 44 1017.7
20260503180021 78 54 2.0 6.0 0.00 0.00 0.00 46 1017.8
20260503175518 77 74 2.0 6.0 0.00 0.00 0.00 46 1017.7
20260503175015 77 55 4.0 5.0 0.00 0.00 0.00 43 1017.8
20260503174513 76 342 5.0 7.0 0.00 0.00 0.00 45 1017.7
20260503174009 76 298 4.0 6.0 0.00 0.00 0.00 46 1017.6
20260503173504 75 291 2.0 5.0 0.00 0.00 0.00 44 1017.9
20260503173000 76 35 3.0 5.0 0.00 0.00 0.00 45 1018.0
20260503172458 76 65 4.0 7.0 0.00 0.00 0.00 45 1018.0
20260503171955 75 249 3.0 7.0 0.00 0.00 0.00 48 1018.0
20260503171451 75 311 2.0 5.0 0.00 0.00 0.00 48 1018.1
20260503170949 75 65 5.0 7.0 0.00 0.00 0.00 46 1018.0
20260503170445 75 333 1.0 7.0 0.00 0.00 0.00 47 1018.3
20260503150837 70 82 5.0 7.0 0.00 0.00 0.00 69 1018.6
20260503150333 69 46 5.0 8.0 0.00 0.00 0.00 73 1018.6
20260503140257 65 50 2.0 9.0 0.00 0.00 0.00 81 1018.5
20260503131227 62 41 1.0 3.0 0.00 0.00 0.00 92 1018.3
20260503130725 61 8 4.0 8.0 0.00 0.00 0.00 93 1018.2
20260503130222 60 3 3.0 5.0 0.00 0.00 0.00 94 1018.1
20260503120148 57 35 2.0 3.0 0.00 0.00 0.00 99 1017.7
20260503110615 57 34 0.0 2.0 0.00 0.00 0.00 99 1017.3
20260503110113 57 37 0.0 2.0 0.00 0.00 0.00 99 1017.0
20260503090450 57 318 2.0 3.0 0.00 0.00 0.00 99 1016.0
20260503081411 57 3 2.0 2.0 0.00 0.00 0.00 99 1015.8
20260503080908 57 264 1.0 5.0 0.00 0.00 0.00 99 1015.7
20260503080404 57 330 0.0 1.0 0.00 0.00 0.00 99 1015.7